NSZ3402 EKCH-GMTT

Flight info

Callsign NSZ3402
Flight time N/A
Altitude 38000
Route LANGO DCT ALS N872 PAM/N0441F370 N872 MEDIL DCT LESDO DCT KOVIN DCT ODEBU DCT OGULO DCT RISNO DCT MOTAL DCT LX382/N0445F390 DCT BEBIX DCT SECHE DCT TIVLI N869 PIMOS DCT NARMI
Aircraft B38M/M-SDE1FGHILORVWXY/HB1

Departure

Time N/A
Airport Copenhagen Kastrup Airport (EKCH)

Arrival

Time 2026-04-29 18:09
Airport Tangier Ibn Battuta Airport (GMTT)
Time Latitude Longitude Altitude Speed Heading
2026-04-29 17:20 36.05602 -5.00520 17442 ft 304 kts 223°
2026-04-29 17:20 36.04104 -5.02291 17135 ft 300 kts 223°
2026-04-29 17:20 36.02602 -5.04066 16826 ft 297 kts 223°
2026-04-29 17:20 36.01111 -5.05825 16521 ft 296 kts 223°
2026-04-29 17:21 35.99630 -5.07572 16219 ft 294 kts 223°
2026-04-29 17:21 35.98159 -5.09308 15918 ft 291 kts 223°
2026-04-29 17:21 35.96699 -5.11029 15617 ft 288 kts 223°
2026-04-29 17:21 35.95255 -5.12729 15326 ft 285 kts 223°
2026-04-29 17:22 35.93826 -5.14413 15033 ft 283 kts 223°
2026-04-29 17:22 35.92765 -5.15661 14820 ft 281 kts 223°
2026-04-29 17:23 35.92496 -5.15977 14761 ft 281 kts 223°
2026-04-29 17:23 35.91074 -5.17650 14202 ft 286 kts 223°
2026-04-29 17:23 35.89615 -5.19365 13628 ft 294 kts 223°
2026-04-29 17:23 35.88115 -5.21128 12975 ft 302 kts 223°
2026-04-29 17:24 35.86576 -5.22935 12339 ft 309 kts 223°
2026-04-29 17:24 35.85025 -5.24755 11830 ft 303 kts 223°
2026-04-29 17:24 35.83509 -5.26533 11269 ft 299 kts 223°
2026-04-29 17:24 35.82838 -5.27319 11005 ft 297 kts 223°
2026-04-29 17:58 35.82110 -5.28172 10788 ft 296 kts 224°
2026-04-29 17:58 35.80628 -5.29910 10219 ft 293 kts 224°
2026-04-29 17:58 35.79160 -5.31629 9641 ft 289 kts 224°
2026-04-29 17:58 35.77710 -5.33326 9033 ft 286 kts 224°
2026-04-29 17:59 35.76274 -5.35006 8449 ft 283 kts 224°
2026-04-29 17:59 35.74856 -5.36664 7914 ft 279 kts 223°
2026-04-29 17:59 35.73470 -5.38283 7508 ft 270 kts 223°
2026-04-29 17:59 35.72130 -5.39849 7182 ft 260 kts 223°
2026-04-29 18:00 35.70840 -5.41355 6880 ft 250 kts 223°
2026-04-29 18:00 35.69600 -5.42802 6604 ft 240 kts 223°
2026-04-29 18:00 35.68418 -5.44182 6342 ft 231 kts 223°
2026-04-29 18:00 35.67233 -5.45563 6087 ft 239 kts 223°
2026-04-29 18:01 35.66017 -5.46983 5786 ft 243 kts 223°
2026-04-29 18:01 35.64898 -5.48547 5459 ft 247 kts 240°
2026-04-29 18:01 35.64483 -5.50594 5131 ft 251 kts 269°
2026-04-29 18:01 35.64914 -5.52665 4876 ft 251 kts 293°
2026-04-29 18:02 35.65684 -5.54511 4777 ft 233 kts 293°
2026-04-29 18:02 35.66393 -5.56220 4634 ft 216 kts 293°
2026-04-29 18:02 35.67056 -5.57808 4513 ft 206 kts 293°
2026-04-29 18:02 35.67723 -5.59402 4467 ft 217 kts 294°
2026-04-29 18:03 35.68426 -5.61075 4322 ft 222 kts 294°
2026-04-29 18:03 35.69136 -5.62764 4189 ft 223 kts 294°
2026-04-29 18:03 35.69852 -5.64465 4081 ft 223 kts 294°
2026-04-29 18:03 35.70547 -5.66159 3939 ft 221 kts 288°
2026-04-29 18:04 35.70859 -5.67969 3716 ft 212 kts 274°
2026-04-29 18:04 35.71048 -5.69748 3410 ft 208 kts 275°
2026-04-29 18:04 35.71228 -5.71485 3118 ft 201 kts 275°
2026-04-29 18:04 35.71379 -5.73115 2808 ft 181 kts 274°
2026-04-29 18:05 35.71514 -5.74578 2559 ft 167 kts 275°
2026-04-29 18:05 35.71647 -5.75992 2350 ft 166 kts 275°
2026-04-29 18:05 35.71779 -5.77397 2139 ft 160 kts 275°
2026-04-29 18:05 35.71900 -5.78673 1904 ft 141 kts 275°
2026-04-29 18:06 35.72011 -5.79845 1718 ft 136 kts 276°
2026-04-29 18:06 35.72119 -5.80994 1528 ft 135 kts 276°
2026-04-29 18:06 35.72226 -5.82129 1362 ft 133 kts 277°
2026-04-29 18:06 35.72331 -5.83240 1196 ft 133 kts 276°
2026-04-29 18:07 35.72436 -5.84373 1014 ft 132 kts 276°
2026-04-29 18:07 35.72543 -5.85511 867 ft 132 kts 278°
2026-04-29 18:07 35.72651 -5.86632 696 ft 132 kts 279°
2026-04-29 18:07 35.72762 -5.87755 608 ft 135 kts 278°
2026-04-29 18:08 35.72878 -5.88943 369 ft 149 kts 276°
2026-04-29 18:08 35.72985 -5.90167 156 ft 140 kts 278°
2026-04-29 18:08 35.73092 -5.91339 74 ft 128 kts 277°
2026-04-29 18:08 35.73172 -5.92195 62 ft 50 kts 276°
2026-04-29 18:09 35.73192 -5.92400 61 ft 22 kts 277°
2026-04-29 18:09 35.73189 -5.92552 62 ft 14 kts 243°
2026-04-29 18:09 35.73109 -5.92620 62 ft 16 kts 180°
2026-04-29 18:09 35.73023 -5.92538 58 ft 18 kts 105°
2026-04-29 18:10 35.73006 -5.92363 60 ft 26 kts 97°
2026-04-29 18:10 35.72983 -5.92111 62 ft 32 kts 97°
2026-04-29 18:10 35.72958 -5.91851 60 ft 19 kts 96°
2026-04-29 18:10 35.72931 -5.91740 56 ft 13 kts 140°
2026-04-29 18:11 35.72837 -5.91717 62 ft 15 kts 175°
2026-04-29 18:11 35.72719 -5.91706 62 ft 20 kts 176°
2026-04-29 18:11 35.72572 -5.91692 62 ft 23 kts 176°
2026-04-29 18:11 35.72451 -5.91638 56 ft 19 kts 130°
2026-04-29 18:12 35.72429 -5.91480 57 ft 21 kts 85°
2026-04-29 18:12 35.72440 -5.91317 56 ft 8 kts 86°
2026-04-29 18:12 35.72450 -5.91250 62 ft 3 kts 42°
2026-04-29 18:12 35.72496 -5.91247 62 ft 13 kts 357°
2026-04-29 18:13 35.72520 -5.91249 62 ft 0 kts 356°